Location: Fort Worth, Tx
(32.7431°N, 97.3695°W)
Time: 15:48:07
(UTC-04:00)

A-11 Canister half - Pass Details

Date: 26 February 2024
Orbit: 1525 x 1683 km, 47.3° (Epoch: 21 April)

Event Time Altitude Azimuth Distance (km) Brightness Sun altitude
Exits shadow 05:43:55 48° 219° (SW) 1,924 9.1 -29.6°
Drops below altitude 10° 05:52:24 10° 156° (SSE) 3,750 11.2 -27.8°
Sets 05:55:39 0° 151° (SSE) 4,753 11.8 -27.2°
